Ontario, OR

10:07 AM MDT on May 26, 2017 (GMT -0600)
Ontario Municipal

Weather History for KONO - August, 2013

Change the Weather History Date:

Wednesday, August 28, 2013

  Actual Average Record
Temperature  
Mean Temperature 79 °F 70 °F  
Max Temperature 94 °F 88 °F 102 °F (1972)
Min Temperature 63 °F 51 °F 33 °F (1960)
Degree Days  
Heating Degree Days 0 1  
Month to date heating degree days 0 4  
Since 1 June heating degree days 39 61  
Since 1 July heating degree days 0 9  
Cooling Degree Days 14 5  
Month to date cooling degree days 378 254  
Year to date cooling degree days 1134 777  
Since 1 June cooling degree days 1087 741  
Growing Degree Days 28 (Base 50)    
Moisture  
Dew Point 46 °F    
Average Humidity 36    
Maximum Humidity 60    
Minimum Humidity 11    
Precipitation  
Precipitation 0.00 in 0.01 in 0.06 in (1951)
Month to date precipitation T 0.16  
Year to date precipitation 2.61 6.22  
Sea Level Pressure  
Sea Level Pressure 29.82 in    
Wind  
Wind Speed 3 mph (East)    
Max Wind Speed 9 mph    
Max Gust Speed 14 mph    
Visibility 10 miles    
Events      
T = Trace of Precipitation, MM = Missing Value Source: NWS Daily Summary

Daily Weather History Graph

Daily Weather History Graph

Search for Another Location

Airport or City:

Trip Planner

Search our weather history database for the weather conditions in past years. The results will help you decide how hot, cold, wet, or windy it might be!

Date:

Astronomy

Aug. 28, 2013 Rise Set
Actual Time 7:07 AM MDT 8:30 PM MDT
Civil Twilight 6:37 AM MDT 9:00 PM MDT
Nautical Twilight 6:00 AM MDT 9:36 PM MDT
Astronomical Twilight 5:22 AM MDT 10:14 PM MDT
Moon 12:12 AM MDT (8/28) 3:18 PM MDT (8/28)
Length of Visible Light 14h 23m
Length of Day
13h 23m
Waning Gibbous, 47% of the Moon is Illuminated
Aug 28
Waning Gibbous
Sep 5
New
Sep 12
First Quarter
Sep 19
Full
Sep 26
Last Quarter

Hourly Weather History & Observations

Time (MDT) Temp. Dew Point Humidity Pressure Visibility Wind Dir Wind Speed Gust Speed Precip Events Conditions
12:53 AM 69.1 °F 52.0 °F 54% 29.73 in 10.0 mi West 3.5 mph - N/A   Clear
1:53 AM 66.9 °F 51.1 °F 57% 29.73 in 10.0 mi WSW 6.9 mph - N/A   Clear
2:53 AM 66.9 °F 48.9 °F 52% 29.72 in 10.0 mi SW 4.6 mph - N/A   Clear
3:53 AM 69.1 °F 46.9 °F 45% 29.74 in 10.0 mi West 5.8 mph - N/A   Clear
4:53 AM 69.1 °F 48.0 °F 47% 29.76 in 10.0 mi East 5.8 mph - N/A   Partly Cloudy
5:53 AM 66.9 °F 52.0 °F 59% 29.79 in 10.0 mi Calm Calm - N/A   Clear
6:53 AM 66.0 °F 51.1 °F 59% 29.82 in 10.0 mi Calm Calm - N/A   Clear
7:53 AM 64.9 °F 50.0 °F 58% 29.84 in 10.0 mi Calm Calm - N/A   Clear
8:53 AM 69.1 °F 50.0 °F 51% 29.87 in 10.0 mi Calm Calm - N/A   Clear
9:53 AM 73.0 °F 52.0 °F 48% 29.88 in 10.0 mi Calm Calm - N/A   Clear
10:53 AM 80.1 °F 46.0 °F 30% 29.90 in 10.0 mi Calm Calm - N/A   Clear
11:53 AM 86.0 °F 37.9 °F 18% 29.90 in 10.0 mi Calm Calm - N/A   Clear
12:53 PM 89.1 °F 28.0 °F 11% 29.89 in 10.0 mi Calm Calm - N/A   Clear
1:53 PM 90.0 °F 35.1 °F 14% 29.87 in 10.0 mi Variable 3.5 mph - N/A   Clear
2:53 PM 91.0 °F 44.1 °F 20% 29.86 in 10.0 mi NE 4.6 mph - N/A   Clear
3:53 PM 93.9 °F 39.0 °F 15% 29.83 in 10.0 mi ENE 8.1 mph - N/A   Clear
4:53 PM 93.9 °F 42.1 °F 17% 29.81 in 10.0 mi Variable 6.9 mph - N/A   Clear
5:53 PM 93.9 °F 44.1 °F 18% 29.80 in 10.0 mi NE 5.8 mph - N/A   Clear
6:53 PM 91.9 °F 48.0 °F 22% 29.80 in 10.0 mi East 3.5 mph - N/A   Clear
7:53 PM 90.0 °F 45.0 °F 21% 29.79 in 10.0 mi Calm Calm - N/A   Clear
8:53 PM 82.9 °F 46.0 °F 27% 29.79 in 10.0 mi Calm Calm - N/A   Clear
9:53 PM 75.0 °F 51.1 °F 43% 29.81 in 10.0 mi Calm Calm - N/A   Clear
10:53 PM 73.9 °F 51.1 °F 45% 29.83 in 10.0 mi Calm Calm - N/A   Clear
11:53 PM 69.1 °F 54.0 °F 58% 29.83 in 10.0 mi Calm Calm - N/A   Clear